sat.trackr.live / text

‹ back to catalog

STARLINK-35412

NORAD 65797 · 2025-218G

PAYLOAD ACTIVE UNKNOWN

§ Identity

Operator
Country
US
Launch date
2025-09-26
Launch site
AFWTR
Launch vehicle
Mass (kg)
RCS (m²)

Purposes: comms

External: N2YO · Heavens-Above · Gunter

§ Orbital elements

Epoch: 2026-09-20T13:10:39.514080Z

Period
93.91 min
Inclination
97.2861°
Eccentricity
0.0001820
Mean motion
15.33461005 rev/d
Perigee alt
464.3 km
Apogee alt
466.7 km
Semi-major
6,843.6 km
B*
5.4445e-4
RAAN
120.9658°
Arg perigee
85.7392°
Mean anomaly
274.4059°
Rev number
5,434

§ Raw data

STARLINK-354121 65797U 25218G   26263.54906845  .00017552  00000+0  54445-3 0  99962 65797  97.2861 120.9658 0001820  85.7392 274.4059 15.33461005 54340

JSON: /api/v1/satellites/65797 · /tle

For live sub-satellite position, see the globe view (requires WebGL).

§ Visibility from observer

Set your observer location to see the next 7 days of passes ≥ 10°. The values pass through the URL so the page stays shareable.

No JS? Fill the form by hand. The geolocation button needs JavaScript.